Alabaster, AL

2:14 PM CDT on October 14, 2019 (GMT -0500)
Shelby County

Weather History for KEET - August, 2019

Change the Weather History Date:

Wednesday, August 28, 2019

  Actual Average Record
Temperature  
Mean Temperature 80 °F 79 °F  
Max Temperature 91 °F 89 °F 99 °F (1998)
Min Temperature 68 °F 69 °F 58 °F (1957)
Cooling Degree Days 15 14  
Month to date cooling degree days 497 428  
Year to date cooling degree days 1786 1558  
Since 1 June cooling degree days 1389 1289  
Growing Degree Days 30 (Base 50)    
Moisture  
Dew Point 68 °F    
Average Humidity 69    
Maximum Humidity 100    
Minimum Humidity 38    
Precipitation  
Precipitation 0.00 in 0.14 in 1.90 in (1956)
Month to date precipitation 2.21 4.31  
Year to date precipitation 33.49 37.63  
Sea Level Pressure  
Sea Level Pressure 29.99 in    
Wind  
Wind Speed 4 mph (NNW)    
Max Wind Speed 14 mph    
Max Gust Speed 19 mph    
Visibility 9 miles    
Events      
T = Trace of Precipitation, MM = Missing Value Source: NWS Daily Summary

Daily Weather History Graph

Daily Weather History Graph

Search for Another Location

Airport or City:

Astronomy

Aug. 28, 2019 Rise Set
Actual Time 6:18 AM CDT 7:17 PM CDT
Civil Twilight 5:53 AM CDT 7:42 PM CDT
Nautical Twilight 5:23 AM CDT 8:13 PM CDT
Astronomical Twilight 4:51 AM CDT 8:44 PM CDT
Moon 3:59 AM CDT (8/28) 6:21 PM CDT (8/28)
Length of Visible Light 13h 49m
Length of Day
12h 58m
Waning Crescent, 4% of the Moon is Illuminated
Aug 28
Waning Crescent
Aug 30
New
Sep 5
First Quarter
Sep 13
Full
Sep 21
Last Quarter

Hourly Weather History & Observations

Time (CDT) Temp. Heat Index Dew Point Humidity Pressure Visibility Wind Dir Wind Speed Gust Speed Precip Events Conditions
12:31 AM 72.0 °F - 71.1 °F 97% 29.98 in 2.5 mi West 3.5 mph - N/A   Mostly Cloudy
12:38 AM 72.0 °F - 71.1 °F 97% 29.98 in 7.0 mi Calm Calm - N/A   Mostly Cloudy
12:51 AM 71.6 °F - 71.6 °F 100% 29.98 in 8.0 mi West 3.5 mph - N/A   Scattered Clouds
12:53 AM 72.0 °F - 71.1 °F 97% 29.96 in 9.0 mi West 3.5 mph - N/A   Scattered Clouds
1:53 AM 70.0 °F - 68.0 °F 93% 29.94 in 10.0 mi Calm Calm - N/A   Clear
2:53 AM 70.0 °F - 69.1 °F 97% 29.93 in 10.0 mi Calm Calm - N/A   Partly Cloudy
3:28 AM 70.0 °F - 69.1 °F 97% 29.96 in 10.0 mi WNW 3.5 mph - N/A   Scattered Clouds
3:36 AM 71.1 °F - 69.1 °F 93% 29.96 in 10.0 mi Variable 3.5 mph - N/A   Mostly Cloudy
3:53 AM 71.1 °F - 70.0 °F 96% 29.94 in 8.0 mi NW 3.5 mph - N/A   Overcast
4:02 AM 72.0 °F - 70.0 °F 93% 29.96 in 7.0 mi NNW 3.5 mph - N/A   Overcast
4:53 AM 72.0 °F - 71.1 °F 97% 29.96 in 7.0 mi North 5.8 mph - N/A   Overcast
5:25 AM 73.0 °F - 71.1 °F 93% 30.00 in 7.0 mi Calm Calm - N/A   Overcast
5:36 AM 73.0 °F - 71.1 °F 93% 30.00 in 7.0 mi Calm Calm - N/A   Mostly Cloudy
5:53 AM 72.0 °F - 70.0 °F 93% 29.99 in 7.0 mi Calm Calm - N/A   Mostly Cloudy
6:19 AM 72.0 °F - 70.0 °F 93% 30.00 in 7.0 mi NNW 4.6 mph - N/A   Scattered Clouds
6:53 AM 73.0 °F - 70.0 °F 90% 29.99 in 7.0 mi Variable 3.5 mph - N/A   Clear
7:53 AM 75.0 °F - 71.1 °F 87% 30.01 in 10.0 mi NNW 4.6 mph - N/A   Clear
8:53 AM 78.1 °F - 71.1 °F 79% 30.02 in 10.0 mi North 5.8 mph - N/A   Mostly Cloudy
9:35 AM 80.1 °F 83.6 °F 71.1 °F 74% 30.04 in 10.0 mi Variable 5.8 mph - N/A   Scattered Clouds
9:53 AM 80.1 °F 83.2 °F 70.0 °F 71% 30.02 in 10.0 mi Variable 4.6 mph - N/A   Partly Cloudy
10:53 AM 82.0 °F 85.5 °F 69.1 °F 65% 30.02 in 10.0 mi North 8.1 mph - N/A   Scattered Clouds
11:53 AM 84.9 °F 87.6 °F 66.9 °F 55% 30.01 in 10.0 mi Variable 6.9 mph - N/A   Clear
12:53 PM 87.1 °F 89.2 °F 66.0 °F 49% 30.00 in 10.0 mi Variable 6.9 mph - N/A   Clear
1:53 PM 88.0 °F 88.4 °F 62.1 °F 42% 30.00 in 10.0 mi North 8.1 mph 16.1 mph N/A   Clear
2:53 PM 89.1 °F 88.8 °F 60.1 °F 38% 29.99 in 10.0 mi North 8.1 mph 18.4 mph N/A   Clear
3:53 PM 90.0 °F 90.6 °F 63.0 °F 40% 29.98 in 10.0 mi North 8.1 mph - N/A   Clear
4:53 PM 89.1 °F 89.3 °F 62.1 °F 40% 29.98 in 10.0 mi Variable 5.8 mph - N/A   Clear
5:53 PM 87.1 °F 87.8 °F 63.0 °F 44% 29.98 in 10.0 mi NNW 5.8 mph - N/A   Clear
6:53 PM 84.9 °F 86.1 °F 64.0 °F 49% 29.98 in 10.0 mi Calm Calm - N/A   Clear
7:53 PM 78.1 °F - 66.0 °F 66% 29.99 in 10.0 mi North 3.5 mph - N/A   Clear
8:53 PM 73.9 °F - 68.0 °F 82% 30.01 in 10.0 mi Calm Calm - N/A   Clear
9:53 PM 72.0 °F - 68.0 °F 87% 30.02 in 10.0 mi Calm Calm - N/A   Clear
10:53 PM 72.0 °F - 66.0 °F 81% 30.02 in 10.0 mi Calm Calm - N/A   Clear
11:53 PM 71.1 °F - 66.9 °F 87% 30.02 in 10.0 mi Calm Calm - N/A   Clear